Location: Saalfelden+am+Steinernen+Meer
(47.4274°N, 12.8411°E)
Time: 02:20:04
(UTC+01:00)

Tiangong 1 - Visible Passes

Search period start: 17 January 2018 00:00
Search period end: 27 January 2018 00:00
Orbit: 264 x 288 km, 42.8° (Epoch: 16 January)

Date Brightness Start Highest point End Pass type
(mag) Time Alt. Az. Time Alt. Az. Time Alt. Az.
17 Jan 2.4 17:59:03 10° SW 18:01:05 22° S 18:02:21 15° SE visible
18 Jan 2.2 17:58:43 10° SW 18:00:51 25° S 18:02:17 15° SE visible
19 Jan 2.2 17:58:19 10° WSW 18:00:30 27° S 18:02:07 14° SE visible
20 Jan 2.3 17:57:51 10° WSW 17:59:58 25° S 18:01:51 12° SE visible
21 Jan 2.6 17:57:17 10° WSW 17:59:18 22° S 18:01:19 10° SE visible
22 Jan 3.0 17:56:38 10° WSW 17:58:28 18° SSW 18:00:16 10° SSE visible
23 Jan 3.4 17:56:03 10° SW 17:57:28 14° SSW 17:58:51 10° SSE visible
